Regional Weather Roundup
Issued by NWS Goodland, KS

Home | Current Version | Previous Version | Graphics & Text | Print | Product List | Glossary On
Versions: 1 2 3 4 5 6 7 8 9 10 11 12 13 14 15 16 17 18 19 20 21 22 23 24 25 26 27 28 29 30 31 32 33 34 35 36 37 38 39 40 41 42 43 44 45 46 47 48 49 50
000
ASUS43 KGLD 021308
RWRGLD

GOODLAND FORECAST AREA HOURLY WEATHER ROUNDUP
NATIONAL WEATHER SERVICE GOODLAND KS
700 AM MDT SUN AUG 02 2015

...OFFICIAL OBSERVATIONS...

CITY           SKY/WX    TMP DP  RH WIND       PRES   REMARKS
GOODLAND KS    PTSUNNY   68  66  93 S6        30.01R
HILL CITY KS   SUNNY     72  68  87 SW5       29.95S
IMPERIAL NEB   SUNNY     66  60  81 W3        29.98R
MCCOOK NEB     SUNNY     68  63  84 SW3       29.95R
AKRON CO       SUNNY     67  55  65 SW9       30.05R
BURLINGTON CO  MOSUNNY   65  62  90 SW3       30.04S FOG
LIMON CO       MOSUNNY   59  52  77 N3        30.11R
$$

...UNOFFICIAL OBSERVATIONS...

CITY           SKY/WX    TMP DP  RH WIND       PRES   REMARKS
SHARON SPRINGS   N/A     68  66  94 CALM        N/A
KIT CARSON CO    N/A     66  62  88 MISG        N/A
YUMA CO          N/A     62  59  90 CALM        N/A
$$


USA.gov is the U.S. government's official web portal to all federal, state and local government web resources and services.